Location: Artiguedieu
(43.5000°N, 0.5454°E)
Time: 07:21:22
(UTC+00:00)

Milstar 3 Cent rocket - Pass Details

Date: 06 December 2020
Orbit: 706 x 5147 km, 28.3° (Epoch: 19 January)

Event Time Altitude Azimuth Distance (km) Brightness Sun altitude
Exits shadow 04:42:09 18° 205° (SSW) 2,368 4.3 -27.2°
Maximum altitude 04:44:16 21° 181° (S) 2,468 4.6 -26.8°
Drops below altitude 10° 04:51:06 10° 137° (SE) 4,155 6.4 -25.5°
Sets 04:56:54 0° 124° (SE) 5,986 7.6 -24.5°
